Find Starlink 35693

NORAD ID: 66490 Int'l Des: 2025-263 Owner: SPXS Country: US Constellation: starlink operational
LEOCIRCULAR

現在のビュー

3D地球を読み込み中...

Starlink 35693について

説明を読み込み中...

次回通過

Passes for default location (London). Set your location on the main map for personalized predictions.

高度履歴

Loading altitude history...

軌道要素

1 66490U 25263F 26146.05388971 .00013403 00000-0 49566-3 0 9997
2 66490 43.0023 273.5388 0001087 282.6990 77.3741 15.27582154 30739
Epoch: May 26, 2026 • Age: 14 hours

現在のステータス

高度 482.0 km
速度 7.63 km/s
衛星直下点 7.36°N, 161.95°E
打ち上げ日 Nov 15, 2025
運用期間 0.5 years
タイプ internet

技術仕様

分類 Payload
質量 575.00 kg
乾燥質量 530.00 kg
総質量 575.00 kg
長さ 0.30 m
直径 4.10 m
スパン 29.00 m
形状 Box + pan
製造者 SPXS
バスタイプ Starlink V2MO
フェーズステータス In Orbit
所有者/国 SPXS/US

Most Searched